Weather History for Valparaiso, FL

Change the Weather History Date:

Sunday, September 23, 2012

  Actual Average Record
Temperature  
Mean Temperature 79 °F -  
Max Temperature 91 °F 87 °F 95 °F (1967)
Min Temperature 67 °F 64 °F 47 °F (1983)
Cooling Degree Days 14    
Growing Degree Days 29 (Base 50)    
Moisture  
Dew Point 59 °F    
Average Humidity 58    
Maximum Humidity 90    
Minimum Humidity 24    
Precipitation  
Precipitation 0.00 in - - ()
Sea Level Pressure  
Sea Level Pressure 30.11 in    
Wind  
Wind Speed 4 mph (North)    
Max Wind Speed 12 mph    
Max Gust Speed 16 mph    
Visibility 10 miles    
Events      
Averages and records for this station are not official NWS values.
T = Trace of Precipitation, MM = Missing Value Source: NWS Daily Summary

Daily Weather History Graph

Daily Weather History Graph

Search for Another Location

Airport:

Trip Planner

Search our weather history database for the weather conditions in past years. The results will help you decide how hot, cold, wet, or windy it might be!

Date:

Astronomy

Sep. 23, 2012 Rise Set
Actual Time 6:35 AM CDT 6:40 PM CDT
Civil Twilight 6:11 AM CDT 7:04 PM CDT
Nautical Twilight 5:43 AM CDT 7:32 PM CDT
Astronomical Twilight 5:15 AM CDT 8:00 PM CDT
Moon 2:20 PM CDT (9/23) 12:09 AM CDT (9/23)
Length of Visible Light 12h 53m
Length of Day
12h 05m
First Quarter, 60% of the Moon is Illuminated
Sep 23
First Quarter
Sep 29
Full
Oct 8
Last Quarter
Oct 15
New
Oct 21
First Quarter

Hourly Weather History & Observations

Time (CDT) Temp. Heat Index Dew Point Humidity Pressure Visibility Wind Dir Wind Speed Gust Speed Precip Events Conditions
12:55 AM 72.5 °F - 68.9 °F 88% 30.08 in 10.0 mi NW 3.5 mph - N/A   Clear
1:56 AM 71.4 °F - 67.1 °F 86% 30.07 in 8.0 mi NNW 2.3 mph - N/A   Clear
1:58 AM 71.4 °F - 67.1 °F 86% 30.07 in 10.0 mi NW 2.3 mph - N/A   Clear
2:56 AM 71.1 °F - 66.9 °F 87% 30.08 in 8.0 mi NW 2.3 mph - N/A   Clear
3:56 AM 69.1 °F - 66.0 °F 90% 30.08 in 8.0 mi NW 3.5 mph - N/A   Clear
4:55 AM 69.8 °F - 65.5 °F 86% 30.09 in 8.0 mi Calm Calm - N/A   Clear
5:55 AM 68.0 °F - 64.4 °F 88% 30.11 in 8.0 mi North 2.3 mph - N/A   Clear
6:57 AM 67.3 °F - 63.1 °F 87% 30.12 in 10.0 mi North 3.5 mph - N/A   Clear
7:55 AM 70.7 °F - 62.8 °F 76% 30.14 in 10.0 mi NNE 4.6 mph - N/A   Clear
8:55 AM 76.5 °F - 58.1 °F 53% 30.15 in 10.0 mi NE 5.8 mph - N/A   Clear
9:55 AM 79.7 °F - 58.1 °F 47% 30.16 in 10.0 mi ENE 8.1 mph - N/A   Clear
10:55 AM 84.0 °F - 52.5 °F 34% 30.16 in 10.0 mi NE 9.2 mph - N/A   Clear
11:55 AM 86.9 °F - 51.8 °F 30% 30.15 in 10.0 mi North 8.1 mph - N/A   Clear
12:55 PM 88.7 °F - 48.2 °F 25% 30.14 in 10.0 mi NE 8.1 mph - N/A   Clear
1:55 PM 89.8 °F - 49.3 °F 25% 30.12 in 10.0 mi NE 9.2 mph - N/A   Partly Cloudy
2:57 PM 91.2 °F - 49.5 °F 24% 30.11 in 10.0 mi NNW 9.2 mph 16.1 mph N/A   Clear
3:55 PM 90.1 °F - 51.1 °F 26% 30.09 in 10.0 mi NNE 11.5 mph - N/A   Clear
4:55 PM 89.2 °F - 51.6 °F 27% 30.09 in 10.0 mi North 9.2 mph - N/A   Clear
5:55 PM 87.1 °F 85.1 °F 54.1 °F 32% 30.09 in 10.0 mi North 5.8 mph - N/A   Clear
6:11 PM 86.0 °F 84.5 °F 55.4 °F 35% 30.09 in 10.0 mi North 3.5 mph - N/A   Clear
6:55 PM 81.0 °F 81.2 °F 58.1 °F 46% 30.10 in 10.0 mi Calm Calm - N/A   Clear
7:55 PM 78.3 °F - 58.8 °F 51% 30.12 in 10.0 mi Calm Calm - N/A   Clear
8:55 PM 74.8 °F - 60.4 °F 61% 30.14 in 10.0 mi Calm Calm - N/A   Clear
9:55 PM 72.1 °F - 61.2 °F 68% 30.14 in 10.0 mi Calm Calm - N/A   Clear
10:55 PM 70.2 °F - 61.2 °F 73% 30.15 in 10.0 mi Calm Calm - N/A   Clear
11:55 PM 70.7 °F - 61.0 °F 71% 30.14 in 10.0 mi Calm Calm - N/A   Scattered Clouds